Find WHDW 19-02

NORAD ID: 67523 Int'l Des: 2026-013 Owner: ZXW Country: CN Constellation: xingwang operational
LEOCIRCULAR

Current View

Loading 3D Globe...

About WHDW 19-02

Description loading...

Upcoming Passes

Passes for default location (London). Set your location on the main map for personalized predictions.

Altitude History

Loading altitude history...

Two-Line Element Set

1 67523U 26013B 26146.19823213 -.00000085 00000-0 84788-4 0 9996
2 67523 50.0054 74.6435 0000883 29.3977 330.6945 13.29328998 17129
Epoch: May 26, 2026 • Age: 17 hours

Current Status

Altitude 1149.7 km
Velocity 7.28 km/s
Sub-Earth Point 18.84°N, 24.48°E
Launch Date Jan 19, 2026
Age 0.3 years
Type other

Technical Details

Classification Payload
Mass 800.00 kg
Dry Mass 800.00 kg
Total Mass 800.00 kg
Length 3.00 m
Diameter 1.00 m
Span 10.00 m
Shape Box + 2 Pan
Manufacturer YINNT
Bus Type Xingwang Y
Phase Status In Orbit
Owner/State ZXW/CN

Most Searched